TimeCDT,TemperatureF,Dew PointF,Humidity,Sea Level PressureIn,VisibilityMPH,Wind Direction,Wind SpeedMPH,Gust SpeedMPH,PrecipitationIn,Events,Conditions,WindDirDegrees,DateUTC
12:53 AM,82.0,77.0,85,29.88,10.0,WSW,3.5,-,N/A,,Clear,240,2012-08-11 05:53:00
1:53 AM,80.1,77.0,90,29.87,10.0,SSW,4.6,-,N/A,,Clear,210,2012-08-11 06:53:00
2:53 AM,81.0,77.0,88,29.88,9.0,SSW,4.6,-,N/A,,Overcast,210,2012-08-11 07:53:00
3:53 AM,81.0,77.0,88,29.87,9.0,SW,3.5,-,N/A,,Mostly Cloudy,220,2012-08-11 08:53:00
4:20 AM,80.6,77.0,89,29.87,9.0,SW,4.6,-,N/A,Thunderstorm,Mostly Cloudy,230,2012-08-11 09:20:00
4:46 AM,80.6,78.8,94,29.87,5.0,SSW,5.8,-,N/A,Rain-Thunderstorm,Light Rain,200,2012-08-11 09:46:00
4:53 AM,81.0,77.0,88,29.88,10.0,SW,9.2,-,0.02,Thunderstorm,Overcast,220,2012-08-11 09:53:00
5:07 AM,80.6,75.2,84,29.87,10.0,South,6.9,-,N/A,,Mostly Cloudy,190,2012-08-11 10:07:00
5:53 AM,79.0,75.0,88,29.89,8.0,NNE,12.7,21.9,N/A,,Overcast,20,2012-08-11 10:53:00
6:07 AM,75.2,73.4,94,29.90,2.0,Variable,4.6,-,0.24,Rain,Heavy Rain,0,2012-08-11 11:07:00
6:13 AM,75.2,73.4,94,29.91,0.8,Variable,3.5,-,0.62,Rain,Heavy Rain,0,2012-08-11 11:13:00
6:33 AM,75.2,71.6,89,29.90,2.0,SW,15.0,19.6,1.10,Rain,Heavy Rain,220,2012-08-11 11:33:00
6:53 AM,75.9,72.0,87,29.89,10.0,SW,12.7,18.4,1.17,Rain,Light Rain,220,2012-08-11 11:53:00
7:53 AM,73.9,70.0,87,29.93,2.5,Variable,5.8,19.6,0.14,Rain,Heavy Rain,0,2012-08-11 12:53:00
7:59 AM,75.2,71.6,89,29.92,1.5,South,11.5,17.3,0.09,Rain,Heavy Rain,190,2012-08-11 12:59:00
8:10 AM,75.2,71.6,89,29.93,3.0,SSW,10.4,16.1,0.12,Rain,Rain,210,2012-08-11 13:10:00
8:24 AM,75.2,73.4,94,29.95,10.0,SSW,6.9,-,0.12,,Overcast,200,2012-08-11 13:24:00
8:40 AM,75.2,73.4,94,29.96,10.0,South,6.9,-,0.12,,Overcast,190,2012-08-11 13:40:00
8:48 AM,75.2,73.4,94,29.96,10.0,SSE,3.5,-,0.12,,Overcast,160,2012-08-11 13:48:00
8:53 AM,75.9,73.0,91,29.96,9.0,Calm,Calm,-,0.12,,Overcast,0,2012-08-11 13:53:00
9:34 AM,75.2,73.4,94,29.98,7.0,SSE,3.5,-,N/A,,Mostly Cloudy,160,2012-08-11 14:34:00
9:43 AM,75.2,73.4,94,29.98,9.0,Calm,Calm,-,N/A,,Mostly Cloudy,0,2012-08-11 14:43:00
9:53 AM,75.9,73.0,91,29.97,9.0,Calm,Calm,-,N/A,,Mostly Cloudy,0,2012-08-11 14:53:00
10:09 AM,75.2,73.4,94,29.97,10.0,Calm,Calm,-,N/A,,Mostly Cloudy,0,2012-08-11 15:09:00
10:53 AM,78.1,72.0,81,29.97,10.0,SSW,6.9,-,N/A,,Mostly Cloudy,210,2012-08-11 15:53:00
11:00 AM,78.8,73.4,83,29.97,10.0,South,4.6,-,N/A,,Partly Cloudy,190,2012-08-11 16:00:00
11:53 AM,82.0,75.0,79,29.96,10.0,West,4.6,-,N/A,,Clear,270,2012-08-11 16:53:00
12:53 PM,84.9,75.9,74,29.94,10.0,Variable,4.6,-,N/A,,Clear,0,2012-08-11 17:53:00
1:53 PM,88.0,75.9,67,29.94,10.0,NW,5.8,-,N/A,,Partly Cloudy,310,2012-08-11 18:53:00
2:53 PM,89.1,73.9,61,29.92,10.0,Calm,Calm,-,N/A,,Partly Cloudy,0,2012-08-11 19:53:00
3:53 PM,90.0,77.0,65,29.91,10.0,Calm,Calm,-,N/A,,Clear,0,2012-08-11 20:53:00
4:53 PM,90.0,77.0,65,29.90,10.0,ENE,4.6,-,N/A,,Clear,70,2012-08-11 21:53:00
5:53 PM,88.0,78.1,72,29.90,10.0,Calm,Calm,-,N/A,,Clear,0,2012-08-11 22:53:00
6:53 PM,86.0,78.1,77,29.91,10.0,Calm,Calm,-,N/A,,Clear,0,2012-08-11 23:53:00
7:53 PM,84.0,77.0,79,29.91,10.0,SSW,5.8,-,N/A,,Partly Cloudy,200,2012-08-12 00:53:00
8:53 PM,80.1,73.9,81,29.93,10.0,Calm,Calm,-,N/A,,Partly Cloudy,0,2012-08-12 01:53:00
9:53 PM,79.0,73.9,84,29.94,10.0,Calm,Calm,-,N/A,,Clear,0,2012-08-12 02:53:00
10:53 PM,78.1,73.9,87,29.95,10.0,Calm,Calm,-,N/A,,Clear,0,2012-08-12 03:53:00
11:53 PM,78.1,73.9,87,29.95,10.0,Calm,Calm,-,N/A,,Clear,0,2012-08-12 04:53:00